| time (UTC) | temp F | wind direction | speed MPH | gust MPH | rain 1hr in | rain 24hr in | rain mn in | humidity % | barometer mb |
| 20260504081530 | 51 | 10 | 16.0 | 23.0 | 0.00 | 0.00 | 0.00 | 45 | 1009.7 |
| 20260504044537 | 61 | 321 | 4.0 | 8.0 | 0.00 | 0.00 | 0.00 | 34 | 1008.1 |
| 20260504043040 | 61 | 321 | 3.0 | 5.0 | 0.00 | 0.00 | 0.00 | 33 | 1008.1 |
| 20260504041532 | 61 | 321 | 4.0 | 6.0 | 0.00 | 0.00 | 0.00 | 34 | 1008.1 |
| 20260504040033 | 61 | 321 | 4.0 | 8.0 | 0.00 | 0.00 | 0.00 | 34 | 1008.0 |
| 20260504034534 | 61 | 321 | 6.0 | 9.0 | 0.00 | 0.00 | 0.00 | 33 | 1008.0 |
| 20260504033037 | 61 | 321 | 5.0 | 8.0 | 0.00 | 0.00 | 0.00 | 31 | 1007.9 |
| 20260504031531 | 62 | 321 | 5.0 | 6.0 | 0.00 | 0.00 | 0.00 | 30 | 1007.5 |
| 20260504030030 | 62 | 321 | 4.0 | 5.0 | 0.00 | 0.00 | 0.00 | 29 | 1007.4 |
| 20260504024530 | 62 | 321 | 5.0 | 6.0 | 0.00 | 0.00 | 0.00 | 29 | 1007.3 |
| 20260504023031 | 63 | 321 | 5.0 | 8.0 | 0.00 | 0.00 | 0.00 | 28 | 1007.2 |
| 20260504021535 | 65 | 321 | 5.0 | 10.0 | 0.00 | 0.00 | 0.00 | 26 | 1007.2 |
| 20260504020037 | 67 | 321 | 7.0 | 11.0 | 0.00 | 0.00 | 0.00 | 24 | 1007.2 |
| 20260504014536 | 68 | 310 | 9.0 | 15.0 | 0.00 | 0.00 | 0.00 | 23 | 1007.2 |
| 20260504013031 | 69 | 309 | 7.0 | 11.0 | 0.00 | 0.00 | 0.00 | 27 | 1007.1 |
| 20260504011533 | 70 | 309 | 9.0 | 14.0 | 0.00 | 0.00 | 0.00 | 27 | 1007.1 |
| 20260504010030 | 70 | 306 | 5.0 | 12.0 | 0.00 | 0.00 | 0.00 | 29 | 1007.2 |
| 20260504004534 | 70 | 306 | 7.0 | 11.0 | 0.00 | 0.00 | 0.00 | 29 | 1007.2 |
| 20260504003032 | 70 | 303 | 8.0 | 13.0 | 0.00 | 0.00 | 0.00 | 29 | 1007.3 |
| 20260504001535 | 71 | 302 | 10.0 | 15.0 | 0.00 | 0.00 | 0.00 | 26 | 1007.3 |
| 20260504000037 | 72 | 292 | 7.0 | 14.0 | 0.00 | 0.00 | 0.00 | 25 | 1007.4 |
| 20260503234530 | 72 | 292 | 9.0 | 14.0 | 0.00 | 0.00 | 0.00 | 24 | 1007.6 |
| 20260503233030 | 73 | 290 | 8.0 | 16.0 | 0.00 | 0.00 | 0.00 | 24 | 1007.7 |
| 20260503231532 | 72 | 291 | 11.0 | 16.0 | 0.00 | 0.00 | 0.00 | 23 | 1008.0 |
| 20260503230034 | 72 | 293 | 5.0 | 16.0 | 0.00 | 0.00 | 0.00 | 24 | 1008.5 |
| 20260503224533 | 72 | 311 | 5.0 | 14.0 | 0.00 | 0.00 | 0.00 | 25 | 1008.5 |
| 20260503223032 | 72 | 309 | 9.0 | 15.0 | 0.00 | 0.00 | 0.00 | 24 | 1008.7 |
| 20260503221533 | 72 | 279 | 7.0 | 12.0 | 0.00 | 0.00 | 0.00 | 24 | 1008.9 |
| 20260503220033 | 72 | 294 | 9.0 | 14.0 | 0.00 | 0.00 | 0.00 | 25 | 1009.1 |
| 20260503214540 | 71 | 302 | 10.0 | 14.0 | 0.00 | 0.00 | 0.00 | 25 | 1009.3 |
| 20260503213031 | 72 | 298 | 9.0 | 16.0 | 0.00 | 0.00 | 0.00 | 23 | 1009.6 |
| 20260503211534 | 71 | 279 | 7.0 | 15.0 | 0.00 | 0.00 | 0.00 | 26 | 1009.9 |
| 20260503210033 | 70 | 280 | 8.0 | 12.0 | 0.00 | 0.00 | 0.00 | 26 | 1010.1 |
| 20260503204534 | 70 | 279 | 8.0 | 17.0 | 0.00 | 0.00 | 0.00 | 30 | 1010.5 |
| 20260503203036 | 70 | 283 | 6.0 | 12.0 | 0.00 | 0.00 | 0.00 | 29 | 1010.8 |
| 20260503201532 | 69 | 282 | 7.0 | 15.0 | 0.00 | 0.00 | 0.00 | 28 | 1011.0 |
| 20260503200051 | 69 | 282 | 5.0 | 13.0 | 0.00 | 0.00 | 0.00 | 29 | 1011.3 |
| 20260503194532 | 68 | 283 | 9.0 | 14.0 | 0.00 | 0.00 | 0.00 | 30 | 1011.5 |
| 20260503193037 | 68 | 282 | 12.0 | 16.0 | 0.00 | 0.00 | 0.00 | 29 | 1011.7 |
| 20260503191531 | 68 | 283 | 12.0 | 18.0 | 0.00 | 0.00 | 0.00 | 28 | 1012.0 |
| 20260503190032 | 67 | 286 | 8.0 | 17.0 | 0.00 | 0.00 | 0.00 | 30 | 1012.3 |
| 20260503184540 | 67 | 287 | 11.0 | 18.0 | 0.00 | 0.00 | 0.00 | 30 | 1012.5 |
| 20260503183035 | 67 | 313 | 11.0 | 16.0 | 0.00 | 0.00 | 0.00 | 30 | 1012.8 |
| 20260503181530 | 66 | 315 | 6.0 | 16.0 | 0.00 | 0.00 | 0.00 | 35 | 1013.0 |
| 20260503180044 | 64 | 315 | 5.0 | 12.0 | 0.00 | 0.00 | 0.00 | 37 | 1013.2 |
| 20260503174544 | 65 | 315 | 7.0 | 11.0 | 0.00 | 0.00 | 0.00 | 37 | 1013.4 |
| 20260503173046 | 64 | 315 | 3.0 | 12.0 | 0.00 | 0.00 | 0.00 | 42 | 1013.6 |
| 20260503171534 | 63 | 314 | 8.0 | 13.0 | 0.00 | 0.00 | 0.00 | 43 | 1013.8 |